Location: Dannhausen
(51.8650°N, 10.1026°E)
Time: 17:51:01
(UTC+00:00)

Cosmos 2100 Rocket - Pass Details

Date: 09 April 2020
Orbit: 957 x 1000 km, 82.9° (Epoch: 28 May)

Event Time Altitude Azimuth Distance (km) Brightness Sun altitude
Rises 22:11:40 0° 350° (N) 3,669 8.2 -28.3°
Reaches altitude 10° 22:14:12 10° 354° (N) 2,724 7.2 -28.4°
Maximum altitude 22:20:26 68° 77° (ENE) 1,049 4.0 -28.7°
Enters shadow 22:20:39 68° 91° (E) 1,053 4.0 -28.7°
